Lapse_Rate
7.0 6.8 6.7 6.5 6.4 6.4 6.3 6.3 6.2 6.1 6.2 6.2 6.1 6.0 6.2 6.3 6.4 6.5 6.3 6.5 6.3 5.7 5.5 5.2 5.1 5.5 6.0 6.2 6.0 6.0 5.8 5.3 5.3 5.8 5.7 6.5 7.1 7.1 7.0 6.9 7.5 7.6 7.7 7.1 7.2
6.8 6.7 6.5 6.4 6.2 6.1 6.1 6.1 6.1 6.2 6.2 6.2 6.1 6.2 6.3 6.4 6.5 6.6 6.3 6.4 6.5 5.7 5.5 5.2 5.0 5.3 6.2 6.2 5.6 5.9 5.9 5.6 5.5 5.1 5.3 6.1 6.9 6.7 6.9 6.7 7.3 7.5 7.4 7.3 7.1
6.7 6.4 6.1 6.0 5.9 6.0 6.0 6.1 6.3 6.2 6.1 6.1 6.1 6.4 6.4 6.6 6.5 6.7 6.4 6.3 6.3 5.8 5.5 5.5 5.0 5.4 6.0 5.7 5.7 5.8 6.1 6.2 5.5 5.3 5.8 5.5 6.3 6.0 6.5 6.4 6.9 7.2 7.4 7.2 7.0
6.6 6.4 6.2 6.2 6.3 6.4 6.3 6.4 6.3 6.2 6.0 6.0 5.9 6.0 6.2 6.7 6.3 6.3 6.3 6.4 6.3 6.0 5.7 5.6 5.3 5.5 5.8 6.0 5.7 5.6 6.2 5.8 5.7 5.5 5.5 5.0 5.6 5.8 6.1 6.0 6.3 6.4 6.5 6.7 6.8
6.6 6.5 6.4 6.5 6.5 6.5 6.7 6.6 6.5 6.5 6.3 6.1 5.9 5.9 6.1 6.7 6.8 6.3 6.3 6.4 6.4 6.2 5.9 5.8 5.6 5.7 6.0 6.0 5.9 5.8 6.1 6.1 5.9 5.7 5.7 5.3 5.3 5.5 6.1 5.8 6.2 6.5 6.3 6.6 6.6
6.5 6.5 6.5 6.5 6.6 6.8 6.8 6.7 6.7 6.5 6.2 6.0 6.0 6.2 6.3 7.1 6.2 6.2 6.3 6.2 6.3 6.3 5.8 5.9 6.1 6.0 5.8 6.1 6.2 6.1 6.3 6.1 6.1 5.8 5.8 5.6 5.5 4.4 5.6 6.0 6.1 6.4 6.3 6.5 6.6
6.5 6.6 6.6 6.6 6.7 6.8 6.8 6.7 6.7 6.6 6.4 6.3 6.0 5.8 6.1 8.0 6.1 6.4 6.2 6.0 6.0 6.1 5.9 5.7 5.8 6.0 5.9 6.2 6.2 6.0 5.9 6.0 6.3 6.3 5.9 5.7 5.5 5.3 5.6 5.7 5.9 6.3 6.0 6.2 6.5
6.3 6.3 6.3 6.3 6.4 6.4 6.5 6.8 6.8 6.5 6.6 6.3 6.0 5.7 6.4 7.3 6.4 6.7 6.3 6.1 5.8 5.7 5.7 5.4 5.7 6.0 6.0 6.1 6.0 6.1 6.1 6.0 6.5 6.3 6.3 5.5 5.0 5.5 5.9 5.1 5.9 6.3 5.9 5.9 6.2
5.8 5.8 5.8 5.9 6.0 6.0 6.4 6.6 6.6 6.4 6.4 6.1 6.0 5.7 6.5 6.9 7.2 6.3 6.5 6.1 5.5 5.4 5.3 5.3 5.7 5.8 6.0 6.1 5.9 6.0 6.0 6.1 6.5 6.7 6.5 5.7 4.9 5.5 5.9 5.9 6.0 6.1 5.9 5.7 6.0
5.7 5.6 5.6 5.7 5.8 5.9 6.2 6.2 6.3 6.3 6.2 6.0 5.9 5.8 6.1 6.0 6.7 6.5 6.6 6.3 5.4 5.4 5.0 5.2 5.4 5.6 5.8 6.1 5.8 5.8 5.9 6.0 6.4 6.7 6.3 5.9 5.4 5.5 5.6 6.0 6.6 5.9 5.9 5.7 5.8
5.2 5.2 5.3 5.5 5.6 5.7 5.9 6.0 6.1 6.3 6.3 6.3 6.0 6.1 5.8 6.4 6.5 6.3 6.5 6.3 5.4 4.9 5.2 5.4 5.0 5.5 6.8 6.4 6.3 6.2 6.7 6.7 6.9 6.6 6.7 6.2 6.3 6.2 6.0 5.8 6.0 5.5 6.3 6.0 5.9
5.3 5.2 5.3 5.7 5.7 5.8 5.7 5.6 5.8 5.5 5.7 6.3 5.8 5.6 6.6 6.6 6.1 6.4 6.1 5.9 5.6 5.6 5.5 4.8 5.0 6.6 6.7 6.4 6.3 6.6 6.5 6.6 6.9 6.9 6.7 6.7 6.4 6.4 6.1 5.4 5.8 6.1 6.9 6.1 5.9
5.1 5.1 5.1 5.4 5.7 5.7 5.6 5.5 5.4 4.9 4.3 6.0 6.0 6.6 6.9 6.6 6.7 6.2 6.0 5.7 5.8 5.9 5.7 5.7 6.3 6.3 6.2 6.1 6.0 6.3 6.4 6.5 6.5 6.9 6.5 6.6 6.5 6.4 6.1 5.9 5.8 6.0 6.2 6.3 6.4
5.3 5.1 5.1 5.3 5.4 5.6 5.4 5.3 4.5 3.6 4.1 5.5 6.1 5.5 6.4 6.4 6.2 5.7 5.0 5.8 5.6 5.7 5.7 5.2 5.8 5.5 6.4 5.9 6.1 5.9 6.6 6.4 6.9 6.6 6.1 6.5 6.6 6.4 6.4 5.7 5.5 5.7 6.1 6.5 7.1
5.2 5.1 4.9 4.6 5.2 5.6 5.6 5.1 4.3 3.6 3.3 6.0 6.0 6.1 6.2 6.5 6.0 6.3 5.2 5.0 5.3 5.5 5.2 4.7 5.9 6.2 6.0 6.6 6.6 5.9 6.3 6.5 6.4 6.5 6.1 6.3 6.0 6.3 7.2 6.3 5.7 5.7 6.2 6.6 7.5
4.5 4.8 4.8 5.0 5.5 5.0 5.2 5.2 4.7 4.4 3.7 6.7 6.6 6.4 6.4 6.4 6.6 6.1 5.7 5.2 5.5 5.5 5.2 5.1 5.7 5.9 6.1 6.4 6.4 6.2 6.5 6.4 6.4 6.5 6.6 6.4 5.9 6.5 6.5 6.6 6.4 6.1 6.0 6.5 6.2
4.2 4.5 4.3 4.6 5.4 5.5 5.2 4.8 4.8 4.4 5.8 6.9 6.5 6.1 6.3 6.3 6.5 6.0 6.0 5.3 5.2 5.1 4.9 5.1 5.3 5.7 6.2 6.2 6.3 6.2 6.6 6.4 6.4 6.3 6.3 6.8 6.2 6.4 7.0 7.1 7.0 6.8 6.6 6.0 5.5
3.3 3.8 4.0 4.4 4.7 5.0 5.0 4.7 4.6 5.4 6.1 7.0 6.5 6.5 6.1 6.3 6.4 6.7 5.9 5.5 5.3 5.1 5.6 5.0 5.4 5.7 6.0 5.9 6.4 6.1 6.4 6.5 6.1 5.6 5.3 6.5 5.8 6.5 7.2 6.8 6.5 6.7 7.1 6.9 6.0
1.7 2.5 3.2 4.0 4.4 4.5 4.4 3.9 5.1 5.7 6.0 6.0 6.3 6.0 6.2 6.3 6.1 6.5 6.0 5.9 6.1 5.9 5.4 6.0 5.5 6.6 6.7 6.7 6.8 6.7 6.6 6.9 6.6 6.6 6.3 6.6 6.6 6.6 6.8 7.2 6.8 6.9 6.9 6.6 6.4
1.9 2.0 3.1 3.5 4.0 4.5 4.6 4.7 4.9 5.9 5.8 5.3 4.9 5.3 5.4 5.9 5.8 6.0 5.9 6.0 6.1 6.5 6.2 6.0 6.1 7.0 7.4 7.2 7.0 6.9 6.8 6.5 6.5 6.7 6.5 6.2 6.2 6.7 7.3 7.5 7.1 6.9 6.9 6.7 6.6
2.4 2.4 3.6 3.5 4.3 5.0 4.9 5.2 5.4 5.6 5.3 5.3 5.2 5.2 5.3 5.2 5.4 5.7 5.7 6.0 6.4 7.1 6.4 6.2 6.3 7.0 7.2 7.0 6.7 6.5 6.7 6.6 6.3 6.4 5.5 4.9 6.4 7.3 7.8 7.7 7.8 7.4 7.5 7.9 7.8
2.9 3.4 4.7 5.0 5.4 6.3 6.2 6.1 5.8 5.6 5.9 5.7 6.0 5.8 5.5 5.7 5.4 5.6 5.4 6.1 6.3 6.3 5.8 6.1 6.0 6.4 7.1 7.5 7.3 7.3 7.1 7.0 6.4 5.9 6.1 5.8 6.5 7.3 7.8 8.0 7.8 7.9 8.0 8.3 8.0
4.7 5.1 6.0 6.7 6.7 7.0 7.4 6.8 6.6 6.0 6.3 6.1 6.6 6.0 5.3 4.9 5.2 6.0 6.2 6.7 6.6 6.3 6.1 6.7 5.7 5.8 6.7 7.1 7.4 7.0 6.9 6.7 7.0 7.5 6.5 7.0 7.0 8.2 7.7 8.0 7.8 7.9 7.6 7.8 7.5
6.2 6.4 7.1 7.2 8.0 8.0 7.8 7.7 7.6 7.4 6.8 6.8 6.6 6.5 6.5 5.3 5.0 4.8 5.4 6.3 6.4 6.2 6.7 6.4 5.9 5.9 5.8 7.1 7.2 6.8 6.9 7.0 6.9 7.1 6.9 6.6 7.3 8.0 7.9 7.8 8.0 8.3 7.4 7.2 7.6
6.9 7.3 8.0 7.6 8.3 8.3 8.2 8.1 8.0 7.6 7.4 7.3 7.1 6.7 6.5 5.7 5.9 5.3 5.0 5.8 5.9 6.2 5.8 6.2 5.9 6.1 6.2 6.9 7.4 7.8 7.7 7.3 7.2 6.5 7.0 6.5 6.8 7.5 7.8 8.2 8.2 8.3 8.3 7.8 7.6
7.9 8.0 8.2 8.4 8.3 8.3 8.4 8.3 8.3 8.3 8.0 7.9 7.5 7.4 7.1 6.4 6.2 5.3 4.7 5.6 4.7 5.6 5.7 6.0 6.0 6.4 6.6 6.8 6.8 7.6 7.8 7.8 7.3 7.2 6.9 7.1 7.1 7.4 7.9 7.5 8.1 8.0 8.0 8.4 8.0
8.2 8.2 8.2 8.4 8.3 8.2 8.4 8.4 8.3 8.1 8.2 8.2 7.8 7.3 7.4 7.2 6.9 6.1 5.9 6.2 5.4 5.1 5.0 5.0 5.6 6.5 6.4 6.9 6.7 6.3 7.0 7.7 7.7 7.6 6.8 6.7 6.8 7.6 8.6 8.6 8.5 8.3 8.1 7.9 7.4
Wind_Speed
17 18 18 18 18 19 18 18 18 19 18 18 19 18 17 15 13 2 7 10 9 16 4 0 1 4 4 2 1 0 3 5 13 9 8 8 10 9 3 5 3 3 6 12 17
16 17 17 18 19 19 20 18 18 18 18 18 18 18 17 15 5 11 17 13 16 14 6 6 4 6 4 6 3 4 4 9 6 8 2 14 6 12 3 3 5 4 5 15 16
22 19 16 17 19 20 20 21 19 18 18 18 17 17 16 12 5 7 8 26 17 14 6 3 2 3 6 4 5 5 5 8 10 11 11 11 15 7 8 1 2 6 18 16 16
21 21 22 23 23 19 19 20 20 19 18 18 17 15 13 1 7 3 7 15 20 13 6 4 4 3 7 8 6 4 8 8 2 9 12 9 12 18 4 7 10 10 19 14 16
23 22 24 24 25 25 23 20 20 19 18 18 17 14 5 5 11 7 3 10 16 8 10 7 6 5 5 8 8 7 7 7 8 13 13 16 19 8 21 12 2 10 10 14 13
19 20 22 24 25 27 26 25 25 24 20 17 15 11 3 13 8 13 11 5 7 11 8 7 7 8 5 7 12 7 13 11 7 14 15 20 23 3 9 6 5 11 10 10 13
22 22 22 24 24 24 26 28 28 26 24 20 16 8 8 20 6 5 10 8 7 11 8 10 6 3 1 4 7 7 6 1 7 15 9 15 18 19 25 8 7 7 8 9 10
22 23 24 25 25 26 28 28 29 31 27 24 14 7 10 7 24 20 10 4 6 6 5 6 6 5 4 5 2 6 5 5 8 15 9 20 23 27 26 8 9 10 7 11 10
25 25 28 28 29 31 32 35 34 31 23 11 5 6 9 7 7 15 10 8 6 4 6 3 4 4 2 5 2 5 5 11 6 18 8 21 10 24 26 12 8 9 10 11 8
27 29 30 32 34 36 38 39 28 21 6 6 4 2 6 7 4 7 8 8 5 5 3 5 4 4 5 7 10 4 3 5 9 9 13 17 14 9 27 21 14 12 12 13 13
28 29 31 34 35 38 29 5 4 3 3 8 8 5 4 4 2 5 8 9 6 5 8 4 9 14 17 15 7 5 5 9 6 8 9 15 19 16 12 25 19 13 14 15 17
28 30 32 35 40 38 8 6 7 7 14 19 23 22 23 2 3 7 14 10 8 11 7 3 17 16 7 13 16 8 4 7 5 7 14 14 19 23 17 18 25 19 19 19 15
30 32 33 34 39 6 9 5 14 14 6 8 17 14 16 21 19 11 19 8 14 14 18 17 5 16 14 9 13 18 18 10 7 4 12 5 16 18 17 16 23 19 23 20 21
31 32 32 35 10 9 9 9 21 12 5 7 6 7 6 9 7 18 17 17 7 19 12 13 13 9 15 17 14 18 15 13 8 4 5 12 6 13 20 19 19 18 20 22 26
30 34 32 31 5 4 7 19 19 2 3 5 5 3 6 12 3 10 10 4 12 9 9 9 7 16 11 15 19 15 10 18 5 9 5 5 4 6 20 22 27 27 21 22 22
29 35 35 12 2 12 19 15 4 2 9 6 2 3 4 5 3 3 11 3 6 5 8 13 6 9 15 19 18 10 3 3 2 3 5 14 13 5 10 32 33 25 23 20 20
27 34 27 11 4 8 10 4 3 7 3 5 3 2 4 6 5 2 14 16 13 11 17 4 15 9 7 9 16 13 6 3 5 5 10 10 8 17 11 17 26 29 24 21 22
26 31 14 9 17 10 1 3 10 5 8 4 7 8 7 6 8 9 8 12 18 5 3 12 10 18 12 14 7 19 5 4 6 6 3 7 10 14 20 23 10 19 27 23 25
21 5 6 4 8 7 3 7 4 2 4 9 8 4 3 1 4 5 10 13 15 21 8 7 8 4 13 7 15 7 7 3 2 2 0 6 6 9 8 10 8 12 19 23 25
3 4 4 7 14 1 1 8 5 9 13 7 3 4 3 5 7 2 6 7 13 22 21 4 4 7 8 8 13 8 9 4 2 5 5 5 4 12 7 17 7 11 21 21 22
2 3 3 13 3 2 3 4 5 9 12 7 5 5 4 5 6 3 3 8 12 9 18 16 0 4 4 12 15 6 6 3 3 4 3 2 6 4 8 7 11 15 17 21 22
1 2 3 5 4 1 3 4 8 10 10 6 6 5 6 7 5 8 8 7 10 6 10 21 6 10 10 5 13 13 9 6 3 5 4 3 6 3 4 5 7 6 10 14 18
2 3 4 4 1 3 2 5 7 10 10 5 7 11 16 7 6 8 8 5 15 11 7 5 7 2 4 3 2 12 9 15 1 3 7 7 7 2 4 7 5 13 14 16 18
2 3 4 3 1 4 1 5 6 8 6 4 4 7 15 9 11 13 11 9 19 9 22 13 5 13 14 5 5 5 9 10 14 4 7 15 10 14 5 8 6 8 15 17 17
3 4 4 4 3 3 2 3 10 8 3 6 3 8 5 7 13 5 12 19 11 11 8 6 4 12 19 12 6 7 15 14 12 23 9 16 12 10 7 11 15 16 16 18 18
2 2 2 4 2 6 6 4 11 8 1 9 11 10 12 11 12 21 16 13 9 5 8 8 4 6 17 20 12 7 13 20 26 28 27 8 6 3 4 10 9 14 18 19 19
2 2 3 3 3 4 4 6 7 3 7 9 6 11 15 16 13 13 13 18 17 14 12 4 5 3 5 10 7 15 15 14 15 20 19 11 26 5 3 11 17 17 18 19 19
Wind_Direction
5 1 358 355 349 342 331 321 311 311 309 311 311 313 314 313 315 260 244 226 200 216 315 294 250 167 99 124 147 51 203 232 220 152 290 329 357 339 342 110 27 7 147 146 132
358 354 353 352 348 344 338 326 318 309 309 309 310 310 311 317 287 254 234 237 219 223 181 171 214 160 172 165 216 174 207 222 204 149 209 312 5 323 321 14 14 31 79 122 137
7 355 346 344 342 342 339 335 323 314 306 307 306 309 315 325 300 243 226 219 209 179 164 162 227 181 192 131 206 219 216 215 243 173 113 313 315 330 347 56 177 220 145 145 141
0 353 349 349 346 332 331 333 330 320 311 307 306 308 315 281 275 233 227 204 201 197 142 180 205 214 190 198 189 214 230 234 203 201 157 238 333 321 7 267 280 191 159 150 151
346 344 343 341 341 335 335 328 322 320 317 310 304 307 326 236 245 263 241 174 183 154 191 191 188 186 210 195 192 211 222 210 195 180 199 186 259 283 295 298 256 152 180 160 155
354 353 346 336 330 326 329 320 319 316 310 306 295 293 231 251 258 235 211 175 176 173 198 182 211 202 225 211 197 214 225 231 182 200 201 187 225 269 282 40 54 159 179 174 162
352 348 346 340 336 331 322 312 309 305 302 296 289 270 240 236 220 356 176 185 176 185 188 210 220 165 204 253 208 236 229 145 188 196 191 201 218 227 248 251 191 214 190 181 180
346 345 340 334 330 323 317 310 303 296 290 290 267 252 250 252 239 256 254 227 192 192 198 168 148 170 201 298 268 189 174 214 190 176 213 177 218 215 235 217 220 189 201 191 191
347 344 340 334 331 325 318 309 295 286 283 266 213 208 260 278 221 225 191 194 156 191 216 174 175 182 281 199 227 211 230 212 186 190 161 193 209 212 225 213 199 190 190 198 184
347 345 340 336 332 326 320 308 289 285 252 191 225 205 262 238 214 189 175 163 153 130 157 175 203 208 199 198 212 178 211 270 215 194 200 196 222 200 217 220 213 200 191 194 192
344 341 339 335 332 331 326 335 16 23 228 203 193 221 270 219 86 179 151 144 125 141 194 221 213 217 214 202 239 178 191 217 234 196 185 213 223 232 213 202 222 227 193 195 197
341 339 338 336 332 328 343 337 22 318 288 232 246 235 250 304 278 214 145 162 173 194 149 200 229 220 190 206 225 246 234 229 271 187 192 216 220 229 235 213 206 202 194 194 187
337 337 335 337 329 352 329 275 337 341 273 260 220 229 232 220 237 208 173 164 193 194 192 208 203 204 205 198 203 221 227 209 206 152 205 205 233 224 228 223 212 211 204 190 185
335 334 338 340 343 337 300 316 329 321 281 276 239 247 201 163 247 204 195 173 195 206 198 232 234 179 207 216 205 224 221 237 229 178 228 189 258 209 214 209 214 216 209 202 188
334 328 333 334 276 301 278 323 317 235 318 257 239 175 154 164 211 208 176 137 185 162 167 211 198 219 220 216 209 230 186 213 211 181 291 218 244 253 192 209 215 215 209 204 198
331 324 328 329 233 253 287 305 302 241 244 288 284 160 138 222 276 54 166 152 152 183 236 220 213 197 218 221 205 157 170 95 94 119 233 217 195 259 188 209 213 213 213 195 193
327 321 324 317 266 283 313 312 222 221 273 269 336 260 222 191 235 126 178 193 194 206 231 238 231 250 194 208 203 192 170 171 173 193 235 213 193 240 218 206 213 211 209 196 185
330 319 307 273 278 298 259 239 230 207 248 5 344 284 204 169 228 196 167 198 216 183 181 212 241 206 212 205 184 197 197 159 166 190 230 150 223 232 231 254 238 225 200 179 188
332 294 302 266 347 52 270 222 238 301 331 355 341 337 276 276 322 174 208 210 200 207 209 197 236 238 193 187 173 167 193 164 138 210 133 205 249 303 230 224 219 202 186 188 184
312 315 278 322 334 191 308 227 250 10 348 334 307 288 303 359 342 306 204 216 211 211 209 247 266 202 203 140 202 180 151 187 214 161 226 257 247 219 228 214 190 186 181 180 177
40 336 263 351 32 60 203 285 1 337 351 327 326 267 272 317 301 314 277 294 212 213 207 224 296 311 124 208 184 164 175 164 132 150 208 296 256 246 235 226 201 182 177 172 172
326 270 265 33 9 334 311 7 328 314 345 318 292 316 264 291 281 252 231 235 35 312 204 216 210 233 220 256 203 201 179 156 160 188 218 156 276 228 228 244 151 135 157 157 163
261 260 323 97 162 307 258 299 289 319 334 359 309 350 7 317 302 250 269 279 20 341 354 298 224 244 322 330 28 200 203 199 141 79 212 218 258 157 49 67 141 138 142 149 150
292 304 301 45 160 154 24 295 316 304 286 308 283 335 344 337 344 317 303 327 334 321 309 313 220 223 223 218 149 190 192 195 210 189 212 227 249 266 106 129 121 142 146 146 153
219 236 206 279 283 214 149 250 294 312 293 332 288 307 345 316 319 251 325 317 306 314 350 337 255 218 243 244 204 205 208 199 200 224 200 240 234 274 221 180 169 155 145 142 151
252 264 234 264 210 241 261 227 273 282 209 292 280 307 310 290 281 290 288 289 275 312 3 326 282 228 225 234 222 227 207 210 216 218 226 208 220 288 102 117 150 160 153 151 154
228 240 268 238 235 177 208 239 236 271 278 248 319 303 293 287 278 289 282 273 260 263 278 265 274 335 231 205 194 242 207 207 211 227 225 218 232 134 162 166 171 167 164 156 150